Weather Roundup
Issued by NWS

Home | Current Version | Previous Version | Text Only | Print | Product List | Glossary On
Versions: 1 2 3 4 5 6 7 8 9 10 11 12 13 14 15 16 17 18 19 20 21 22 23 24 25 26 27 28 29 30 31 32 33 34 35 36 37 38 39 40 41 42 43 44 45 46 47 48 49 50
000
NZUS93 KARX 212010
HRRWXR

CURRENT HOURLY OBSERVATIONS ACROSS
MUCH OF THE UPPER MISSISSIPPI VALLEY
NATIONAL WEATHER SERVICE LA CROSSE WI
300 PM CDT THU AUG 21 2014


...SOUTHEAST MINNESOTA...


CITY           SKY/WX    TMP DP  RH WIND       PRES   REMARKS
ROCHESTER      MOSUNNY   82  73  74 SE8       29.84R
ROCHESTER/MAYO FAIR      82  68  62 S7        29.83R
WINONA         PTSUNNY   79  72  78 SE10      29.82R
AUSTIN         MOSUNNY   84  72  65 SW13G18   29.81S
ALBERT LEA     MOSUNNY   84  70  61 SW9       29.81R
DODGE CENTER   MOSUNNY   84  73  70 S8        29.82S HX  91
PRESTON        PTSUNNY   78  75  89 SE14      29.85S
OWATONNA       MOSUNNY   84  72  65 S13       29.80R
FARIBAULT      SUNNY     90  64  43 S10       29.79R HX  91
$$

...ELSEWHERE IN MINNESOTA...


CITY           SKY/WX    TMP DP  RH WIND       PRES   REMARKS
MINNEAPOLIS    CLOUDY    81  72  74 NE13      29.77R
INTNL FALLS    CLOUDY    69  61  75 E10       29.88S
DULUTH         CLOUDY    67  60  78 E14       29.89S
RED WING       CLOUDY    82  72  69 SE8       29.79R
REDWOOD FALLS  CLOUDY    87  75  67 N7        29.76R HX  96
MANKATO        MOSUNNY   84  72  65 S9G16     29.77S
WORTHINGTON    MOSUNNY   84  23  10 SW12G18   29.82R
FAIRMONT       SUNNY     86  66  51 MISG      29.79S
$$

...SOUTHWEST WISCONSIN...


CITY           SKY/WX    TMP DP  RH WIND       PRES   REMARKS
LA CROSSE      PTSUNNY   82  71  69 S7        29.83S
PRAIRIE DU CHI CLOUDY    80  71  75 SE7       29.85S
BOSCOBEL       CLOUDY    80  72  76 CALM      29.86F
LONE ROCK      CLOUDY    80  72  76 S7        29.89R
PLATTEVILLE    PTSUNNY   76  73  89 SE10      29.89F
FORT MC COY    PTSUNNY   79  68  69 SE8       29.86F
CAMP DOUGLAS   CLOUDY    77  75  94 SE9       29.87F
VIROQUA        CLOUDY    78  75  91 S9        29.88S
WIS DELLS      CLOUDY    74  69  82 S12       29.91R
$$

...ELSEWHERE IN WISCONSIN...


CITY           SKY/WX    TMP DP  RH WIND       PRES   REMARKS
MILWAUKEE      CLOUDY    72  69  90 CALM      29.95R
MADISON        CLOUDY    77  71  82 S15G21    29.90F
GREEN BAY      CLOUDY    68  65  90 E9        29.92F
EAU CLAIRE     CLOUDY    77  69  76 SE14      29.83S
BLACK RVR FLS  CLOUDY    77  68  73 SE6       29.85F
MEDFORD        CLOUDY    68  66  93 E8        29.91R
WAUSAU         CLOUDY    68  65  90 SE12      29.92R
WIS RAPIDS     MOSUNNY   80  68  66 S10       29.90F
MARSHFIELD     MOSUNNY   77  69  76 S12       29.89S
RICE LAKE      CLOUDY    75  68  78 SE8       29.86S
$$

...NORTHEAST IOWA...


CITY           SKY/WX    TMP DP  RH WIND       PRES   REMARKS
WATERLOO       PTSUNNY   82  70  66 S17       29.82S
DUBUQUE        CLOUDY    74  73  97 S14       29.85F FOG
DECORAH        PTSUNNY   77  73  88 S9G16     29.85F
MASON CITY     MOSUNNY   87  71  58 S17G24    29.83R HX  93
CHARLES CITY   PTSUNNY   81  73  78 S13G22    29.83S
OELWEIN        CLOUDY    79  73  83 S10       29.85S
$$

...ELSEWHERE IN IOWA...


CITY           SKY/WX    TMP DP  RH WIND       PRES   REMARKS
DES MOINES     PTSUNNY   85  73  67 S12       29.85F HX  91
IOWA CITY      LGT RAIN  78  75  90 S7        29.92R
FORT DODGE     SUNNY     88  72  58 SW17      29.82F HX  94
MARSHALLTOWN   MOSUNNY   83  72  69 S16       29.84F
CEDAR RAPIDS   LGT RAIN  75  75 100 S9        29.89R FOG
$$

...NORTHERN ILLINOIS...


CITY           SKY/WX    TMP DP  RH WIND       PRES   REMARKS
CHICAGO-OHARE  CLOUDY    78  69  73 CALM      29.95F
DUPAGE         CLOUDY    80  72  76 S7        29.95F
CHICAGO-MIDWAY CLOUDY    82  74  76 SE9       29.94F
MOLINE         CLOUDY    83  69  62 CALM      29.91F
ROCKFORD       TSTM      75  72  90 E3        29.97R
STERLING       CLOUDY    79  73  83 NW7       29.95F
PEORIA         CLOUDY    85  73  67 SW8       29.95S HX  91
$$

NOTE: "FAIR" INDICATES FEW OR NO CLOUDS BELOW 12,000 FEET WITH NO
SIGNIFICANT WEATHER AND/OR OBSTRUCTIONS TO VISIBILITY. WIND
SPEEDS ARE IN MILES-PER-HOUR.



USA.gov is the U.S. government's official web portal to all federal, state and local government web resources and services.